Content
SEND FEEDBACK

Daily
Averages
Monthly
Summary
United States of America

LAKE TAHOE, NEVADA


Home > North America > United States > Nevada
Elevation: 6241 feet     Latitude: 38 58N     Longitude: 119 57W

WEATHER
 
SELECT A DAY
Number of Records: 177,707;   Date Range: 1/1/95 - 11/19/14
 
SHARE

PRINT THIS DATA

[ ← Previous Day ]
WEATHER ALMANAC - FEBRUARY 6, 2013
[ Next Day → ]
[ °C ]   °F
Weather ElementAverageHighLow
Temperature31.5 °F45 °F (3:53 pm)16 °F (7:53 am)
Dewpoint11.6 °F21.9 °F (6:53 pm)-0.9 °F (10:53 am)
Humidity47 %71 % (7:53 am)17 % (10:53 am)
Barometer30.09 in30.16 in (7:53 am)30.03 in (11:53 pm)
Wind Speed2.9 mph9.2 mph (1:53 pm)
Weather ElementAverage
Visibility10 mi
Wind DirectionNE (49.1 °)

Weather ElementTotal
Precipitation---
Heating Degree Days34.5 (Base 65)
Averaged from 23 records on February 6, 2013
WEATHER CONDITIONS BREAKOUT
WIND DIRECTION BREAKOUT
WEATHER BY HOUR - FEBRUARY 6, 2013
[ °C ]   °F
Local TimeTemperatureDewpointHumidityBarometerVisibilityWind DirectionWind SpeedGust SpeedPrecipitationEventsConditions
1:53 AM24.1 °F12.0 °F60 %30.06 in10.0 miCalmClear
2:53 AM21.9 °F12.0 °F66 %30.07 in10.0 miCalmClear
3:53 AM21.9 °F9.0 °F58 %30.07 in10.0 miSSW (200°)4.6 mphClear
4:53 AM21.0 °F9.0 °F60 %30.07 in10.0 miCalmClear
5:53 AM18.0 °F8.1 °F65 %30.11 in10.0 miSouth (190°)3.5 mphClear
6:53 AM17.1 °F8.1 °F68 %30.13 in10.0 miCalmClear
7:53 AM16.0 °F8.1 °F71 %30.16 in10.0 miCalmClear
8:53 AM24.1 °F5.0 °F44 %30.15 in10.0 miCalmClear
9:53 AM33.1 °F3.0 °F28 %30.12 in10.0 miCalmClear
10:53 AM41.0 °F-0.9 °F17 %30.11 in10.0 miCalmClear
11:53 AM42.1 °F9.0 °F26 %30.10 in10.0 miNE (40°)8.1 mphClear
12:53 PM43.0 °F12.9 °F30 %30.08 in10.0 miNNE (30°)8.1 mphClear
1:53 PM44.1 °F14.0 °F30 %30.06 in10.0 miNE (40°)9.2 mphClear
2:53 PM44.1 °F16.0 °F32 %30.07 in10.0 miNNE (30°)8.1 mphClear
3:53 PM45.0 °F6.1 °F20 %30.06 in10.0 miNNE (20°)4.6 mphClear
4:53 PM37.0 °F18.0 °F46 %30.09 in10.0 miCalmClear
5:53 PM34.0 °F17.1 °F50 %30.13 in10.0 miCalmClear
6:53 PM35.1 °F21.9 °F59 %30.13 in10.0 miCalmClear
7:53 PM37.9 °F19.0 °F47 %30.12 in10.0 miSSW (210°)8.1 mphClear
8:53 PM32.0 °F19.0 °F59 %30.11 in10.0 miSouth (190°)5.8 mphClear
9:53 PM30.9 °F15.1 °F52 %30.07 in10.0 miSouth (180°)5.8 mphClear
10:53 PM30.0 °F14.0 °F51 %30.04 in10.0 miCalmClear
11:53 PM30.9 °F10.9 °F43 %30.03 in10.0 miCalmClear
Hourly data recorded from KTVL, located miles away from Lake Tahoe, Nevada







STORIES FROM OUR PARTNERS